Location: Hookston
(37.9413°N, 122.0527°W)
Time: 14:20:48
(UTC+00:00)

ACS3 Solar Sail - Visible Passes

Search period start: 22 July 2024 00:00
Search period end: 01 August 2024 00:00
Orbit: 993 x 1023 km, 97.4° (Epoch: 21 July)

Date Brightness Start Highest point End Pass type
(mag) Time Alt. Az. Time Alt. Az. Time Alt. Az.
22 Jul 4.8 05:18:27 24° S 05:22:24 87° W 05:28:40 10° NNW visible
22 Jul 7.2 07:05:50 10° W 07:07:18 11° W 07:08:47 10° WNW visible
23 Jul 6.0 04:08:02 10° ESE 04:13:05 27° ENE 04:18:10 10° NNE visible
23 Jul 5.6 05:53:17 23° SSW 05:56:53 45° W 06:02:51 10° NNW visible
24 Jul 5.1 04:42:46 18° SE 04:47:12 51° ENE 04:53:13 10° N visible
24 Jul 6.6 06:28:07 15° SW 06:31:34 23° W 06:36:22 10° NW visible
25 Jul 4.8 05:17:36 25° S 05:21:31 84° WSW 05:27:48 10° NNW visible
25 Jul 7.3 07:05:30 10° W 07:06:28 10° W 07:07:25 10° WNW visible
26 Jul 5.9 04:07:06 10° ESE 04:12:11 28° ENE 04:17:21 10° NNE visible
26 Jul 5.7 05:52:26 22° SSW 05:56:01 43° W 06:01:57 10° NNW visible
27 Jul 5.1 04:41:55 19° SE 04:46:19 53° ENE 04:52:22 10° N visible
27 Jul 6.7 06:27:16 14° SW 06:30:42 22° W 06:35:26 10° NW visible
28 Jul 4.9 05:16:46 25° S 05:20:38 82° WSW 05:26:57 10° NNW visible
29 Jul 5.9 04:06:15 11° ESE 04:11:18 29° ENE 04:16:32 10° N visible
29 Jul 5.8 05:51:36 22° SSW 05:55:09 42° W 06:01:04 10° NNW visible
30 Jul 5.1 04:41:05 19° SE 04:45:26 54° ENE 04:51:32 10° N visible
30 Jul 6.7 06:26:26 14° SW 06:29:52 21° W 06:34:30 10° NW visible
31 Jul 4.9 05:15:56 25° S 05:19:46 80° WSW 05:26:05 10° NNW visible
